Regional Weather Roundup
Issued by NWS

Home | Current Version | Previous Version | Graphics & Text | Print | Product List | Glossary On
Versions: 1 2 3 4 5 6 7 8 9 10 11 12 13 14 15 16 17 18 19 20 21 22 23 24 25 26 27 28 29 30 31 32 33 34 35 36 37 38 39 40 41 42 43 44 45 46 47 48 49 50
000
ASUS43 KLSX 291707
RWRMO

WEATHER SUMMARY FOR MISSOURI
NATIONAL WEATHER SERVICE SPRINGFIELD MO
1200 PM CDT SUN MAR 29 2015

NOTE: "FAIR" INDICATES FEW OR NO CLOUDS BELOW 12,000 FEET WITH NO
       SIGNIFICANT WEATHER AND/OR OBSTRUCTIONS TO VISIBILITY.
       CURRENT SKY AND/OR WEATHER CONDITIONS ARE NOT AVAILABLE FOR
       CHILLICOTHE AND FARMINGTON.

MOZ001>031-035>038-043-044-053-054-291800-
...NORTHERN AND WESTERN MISSOURI...

CITY           SKY/WX    TMP DP  RH WIND       PRES   REMARKS
KANSAS CTY INT CLOUDY    52  41  66 SW12      29.99S
KANSAS C DTWN  CLOUDY    54  40  59 W8        30.00S
ST JOSEPH      PTSUNNY   59  43  55 W10       29.97F
CHILLICOTHE      N/A     50  38  63 SW9       29.97F
KIRKSVILLE     LGT RAIN  48  37  65 SW15G28   29.95F

$$
MOZ066>068-077>081-088>096-101>105-291800-
...SOUTHWEST MISSOURI...

CITY           SKY/WX    TMP DP  RH WIND       PRES   REMARKS
SPRINGFIELD    PTSUNNY   52  35  52 S15G22    30.02F
JOPLIN         PTSUNNY   58  41  53 W9        30.05R

$$
MOZ032>034-039>042-045>050-055>058-069>072-291800-
...CENTRAL MISSOURI...

CITY           SKY/WX    TMP DP  RH WIND       PRES   REMARKS
COLUMBIA       PTSUNNY   52  33  48 S18G26    29.99F
JEFFERSON CITY PTSUNNY   50  31  48 S9G23     29.99F
ROLLA          PTSUNNY   51  33  50 S22       30.03R
SEDALIA        CLOUDY    49  34  56 SW18      30.01S
WHITEMAN AFB   PTSUNNY   50  37  60 SW21      30.00R
WARRENSBURG    PTSUNNY   50  36  57 S13G18    30.02S
OSAGE BEACH    PTSUNNY   54  34  47 S12G18    30.01F

$$
MOZ051-052-059>065-291800-
...EAST CENTRAL MISSOURI...

CITY           SKY/WX    TMP DP  RH WIND       PRES   REMARKS
ST LOUIS INTL  PTSUNNY   55  25  31 S14G29    30.06F
SPIRIT OF STL  PTSUNNY   54  27  35 S17G31    30.03F
ST CHARLES     PTSUNNY   53  28  38 S17G26    30.04F

$$
MOZ072>076-082>087-097>100-106>115-291800-
...SOUTH CENTRAL AND SOUTHEAST MISSOURI...

CITY           SKY/WX    TMP DP  RH WIND       PRES   REMARKS
CAPE GIRARDEAU SUNNY     51  31  46 S17       30.19F
FARMINGTON     MOSUNNY   50  28  43 S25       30.12F
POPLAR BLUFF   CLOUDY    50  32  50 S12G18    30.17F
WEST PLAINS    CLOUDY    48  34  58 S15       30.11F

$$


USA.gov is the U.S. government's official web portal to all federal, state and local government web resources and services.